This demonstration page uses our WeatherBlox Daily Observations layout. Learn more.

39.29038, -76.61219

Hourly Observations for November 30, 2020

Temp ( °F °C ) Dew Point ( °F °C ) Humidity (%) Winds ( mph kmh ) Pressure ( in mb ) Visibility ( mi km ) Precip ( " mm )
12:54 am 00:54 Cloudy 50 10 44 6.7 80 80 E 5 7 29.96 1015 10 16.0934 0 0
1:54 am 01:54 Cloudy with Light Rain 50 10 44 6.7 80 80 ENE 6 9 29.92 1013 10 16.0934 0.01 0.254
2:54 am 02:54 Cloudy with Light Rain 49 9.4 45 7.2 86 86 NE 6 9 29.88 1012 8 12.87472 0.04 1.016
3:54 am 03:54 Cloudy with Light Rain 50 10 46 7.8 86 86 ENE 10 17 29.82 1010 8 12.87472 0.03 0.762
4:54 am 04:54 Cloudy with Light Rain 50 10 48 8.9 93 93 E 9 15 29.78 1008 5 8.0467 0.06 1.524
5:54 am 05:54 Cloudy with Light Rain 52 11.1 50 10 93 93 ENE 12 19 29.7 1006 5 8.0467 0.09 2.286
6:03 am 06:03 Cloudy with Light Rain 52 11.1 50 10 93 93 ENE 10 17 29.68 1005 6 9.65604 0.01 0.254
6:54 am 06:54 Cloudy with Rain 54 12.2 52 11.1 93 93 E 15 24 29.61 1003 4 6.43736 0.17 4.318
7:41 am 07:41 Cloudy with Heavy Rain 56 13.3 54 12.2 93 93 E 14 22 29.53 1000 2.5 4.02335 0.25 6.35
7:51 am 07:51 Cloudy with Heavy Rain 55 13 54 12 94 94 E 14 22 29.52 1000 1.5 2.41401 0.3 7.62
7:54 am 07:54 Cloudy with Heavy Rain 56 13.3 54 12.2 93 93 ESE 14 22 29.52 1000 1.5 2.41401 0.3 7.62
8:04 am 08:04 Cloudy with Light Rain 57 13.9 55 12.8 93 93 SW 8 13 29.53 1000 2.5 4.02335 0.03 0.762
8:25 am 08:25 Cloudy with Rain 58 14.4 56 13.3 93 93 ESE 9 15 29.53 1000 1 1.60934 0.15 3.81
8:46 am 08:46 Cloudy with Rain 58 14.4 56 13.3 93 93 ESE 5 7 29.51 999 1.5 2.41401 0.22 5.588
8:54 am 08:54 Cloudy with Rain 58 14.4 56 13.3 93 93 ESE 5 7 29.49 999 2 3.21868 0.22 5.588
9:10 am 09:10 Cloudy with Light Rain 59 15 57 13.9 93 93 SSE 3 6 29.49 999 2 3.21868 0.02 0.508
9:44 am 09:44 Cloudy with Light Rain 60 15.6 58 14.4 93 93 SE 5 7 29.47 998 3 4.82802 0.03 0.762
9:54 am 09:54 Cloudy with Mist and Fog 61 16.1 59 15 93 93 VRB 5 7 29.47 998 4 6.43736 0.03 0.762
10:26 am 10:26 Cloudy with Light Rain 61 16.1 59 15 93 93 ESE 7 11 29.45 997 1.5 2.41401 0.03 0.762
10:44 am 10:44 Cloudy with Heavy Rain 61 16.1 59 15 93 93 SE 8 13 29.44 997 0.75 1.207005 0.13 3.302
10:54 am 10:54 Cloudy with Heavy Rain 61 16.1 59 15 93 93 SE 12 19 29.44 997 0.5 0.80467 0.47 11.938
11:08 am 11:08 Cloudy with Heavy Rain 62 16.7 60 15.6 93 93 SSW 7 11 29.41 996 1.25 2.011675 0.36 9.144
11:22 am 11:22 Cloudy with Heavy Rain 62 16.7 60 15.6 93 93 SSW 9 15 29.42 996 0.5 0.80467 0.56 14.224
11:40 am 11:40 Cloudy with Heavy Rain 62 16.7 60 15.6 93 93 SSW 6 9 29.42 996 1.5 2.41401 0.91 23.114
11:54 am 11:54 Cloudy with Rain 62 16.7 60 15.6 93 93 S 6 9 29.4 996 6 9.65604 0.92 23.368
12:03 pm 12:03 Cloudy with Rain 62 16.7 59 15 90 90 VRB 5 7 29.4 996 1.5 2.41401 0.04 1.016
12:22 pm 12:22 Mostly Cloudy with Light Rain 62 16.7 60 15.6 93 93 VRB 3 6 29.38 995 6 9.65604 0.1 2.54
12:54 pm 12:54 Cloudy 63 17.2 60 15.6 90 90 ESE 3 6 29.36 994 7 11.26538 0.1 2.54
1:06 pm 13:06 Cloudy with Rain 62 16.7 60 15.6 93 93 E 6 9 29.34 994 2 3.21868 0.01 0.254
1:16 pm 13:16 Cloudy with Rain 62 16.7 60 15.6 93 93 E 3 6 29.33 993 1.5 2.41401 0.08 2.032
1:42 pm 13:42 Cloudy with Rain 62 16.7 60 15.6 93 93 N 5 7 29.31 992 2 3.21868 0.18 4.572
1:54 pm 13:54 Cloudy with Rain 62 16.7 60 15.6 93 93 W 5 7 29.32 993 1.5 2.41401 0.26 6.604
1:56 pm 13:56 Cloudy with Thunderstorms 62 16.7 60 15.6 93 93 WNW 5 7 29.33 993 0.75 1.207005 0.01 0.254
2:13 pm 14:13 Cloudy with Light Thunderstorms 62 16.7 61 16.1 96 96 Calm 29.33 993 2 3.21868 0.04 1.016
2:22 pm 14:22 Cloudy with Mist and Fog 62 16.7 61 16.1 96 96 Calm 29.32 993 5 8.0467 0.04 1.016
2:54 pm 14:54 Cloudy 63 17.2 61 16.1 93 93 SSE 6 9 29.33 993 7 11.26538 0.04 1.016
3:22 pm 15:22 Cloudy 63 17.2 60 15.6 90 90 SSW 6 9 29.33 993 9 14.48406 0 0
3:54 pm 15:54 Cloudy 63 17.2 60 15.6 90 90 Calm 29.32 993 10 16.0934 0 0
4:51 pm 16:51 Cloudy 63 17 59 15 88 88 WSW 9 15 29.33 993 10 16.0934 0 0
4:54 pm 16:54 Cloudy 62 16.7 59 15 90 90 WSW 9 15 29.33 993 10 16.0934 0 0
5:12 pm 17:12 Cloudy 62 16.7 58 14.4 86 86 WSW 9 15 29.35 994 10 16.0934 0 0
5:41 pm 17:41 Cloudy 59 15 54 12.2 83 83 W 18 30 29.38 995 10 16.0934 0 0
5:54 pm 17:54 Mostly Cloudy 58 14.4 52 11.1 81 81 W 13 20 29.39 995 10 16.0934 0 0
6:54 pm 18:54 Cloudy 57 13.9 49 9.4 74 74 W 9 15 29.42 996 10 16.0934 0 0
7:54 pm 19:54 Cloudy 56 13.3 47 8.3 72 72 W 10 17 29.44 997 10 16.0934 0 0
8:54 pm 20:54 Cloudy 53 11.7 43 6.1 69 69 WNW 12 19 29.47 998 10 16.0934 0 0
9:54 pm 21:54 Cloudy 51 10.6 40 4.4 66 66 W 9 15 29.49 999 10 16.0934 0 0
10:54 pm 22:54 Mostly Cloudy 50 10 37 2.8 61 61 W 10 17 29.5 999 10 16.0934 0 0
11:54 pm 23:54 Mostly Cloudy 48 8.9 37 2.8 66 66 W 10 17 29.51 999 10 16.0934 0 0

Powered by AerisWeather